Wind_Speed
40 39 39 37 36 35 34 33 31 29 28 27 27 28 29 30 30 30 33 34 34 33 32 32 32 31 31 32 33 33 33 34 34 33 34 34 34 33
38 37 35 34 33 32 31 29 28 27 25 25 26 27 28 30 31 31 32 33 35 35 34 33 32 32 32 32 33 34 35 36 37 37 38 38 38 37
33 32 31 30 30 29 28 27 26 25 24 25 25 25 26 29 31 33 34 33 35 36 34 31 31 31 32 33 34 35 36 37 39 40 41 41 41 40
27 27 27 26 25 25 26 26 26 27 26 26 26 27 28 30 31 31 30 28 28 28 28 28 29 30 32 33 34 36 37 38 40 41 42 43 43 43
22 23 24 24 24 25 27 27 28 29 28 28 27 28 28 27 25 24 22 22 21 21 22 24 26 28 30 32 34 37 39 40 41 43 44 45 45 46
20 21 23 24 25 27 29 29 29 29 28 26 25 23 22 20 18 17 17 18 20 21 22 24 25 27 29 31 33 35 37 40 42 43 44 45 46 47
20 20 21 23 24 25 26 26 25 23 22 20 18 17 16 15 15 15 16 17 19 20 22 24 26 28 30 32 34 36 38 40 42 44 46 47 48 49
20 20 20 20 21 20 19 18 17 16 15 16 17 16 15 14 14 14 15 16 19 21 23 25 27 29 31 33 36 38 40 43 45 47 49 50 51 52
19 19 19 18 17 17 16 16 16 16 16 16 15 14 13 12 13 14 15 17 18 20 22 24 25 27 30 32 35 38 41 43 46 48 50 51 53 54
18 17 17 16 16 16 16 16 15 15 14 13 12 11 11 11 12 13 14 15 17 19 21 24 26 29 32 35 38 42 45 47 50 52 54 55 55 55
17 16 16 15 16 16 15 15 15 13 12 10 10 9 9 10 10 12 13 15 17 19 21 23 25 27 30 33 36 39 43 46 48 52 55 57 59 59
14 14 14 14 14 15 15 14 13 12 11 10 9 8 8 8 9 10 12 13 14 15 16 18 19 22 24 27 29 31 33 36 38 40 43 47 51 56
13 13 13 13 14 14 14 13 12 12 11 10 8 7 6 5 6 8 9 10 11 12 14 16 18 21 24 26 28 30 32 33 34 35 36 37 40 44
14 14 15 15 14 13 13 13 13 12 11 9 8 6 4 4 4 5 6 7 9 11 14 17 20 23 26 29 31 32 33 33 32 33 34 34 35 36
15 15 15 15 14 13 14 14 14 13 11 9 7 5 4 3 3 3 4 6 9 12 15 18 21 24 27 29 31 32 33 33 32 30 30 30 30 30
17 16 15 15 14 14 15 15 14 13 12 10 8 7 6 4 3 1 3 6 9 12 15 18 21 24 27 29 30 30 29 28 29 28 28 27 27 26
19 17 15 15 16 15 15 14 14 13 12 11 10 8 7 6 4 3 3 5 8 11 14 18 21 25 28 30 30 29 26 24 23 23 24 25 25 24
19 17 16 16 16 16 15 14 14 13 13 13 11 10 8 7 6 5 4 5 8 11 14 17 21 24 27 29 30 29 26 23 21 20 20 22 23 23
18 17 17 17 17 16 15 15 15 15 15 14 13 11 9 8 7 6 6 7 9 12 15 18 21 24 27 29 29 29 28 26 23 21 20 19 20 20
18 18 17 17 16 16 16 16 16 16 16 16 15 13 11 10 9 9 10 11 12 14 16 18 21 23 25 26 28 29 28 27 26 25 23 21 19 18
18 17 17 16 15 15 16 16 16 16 17 17 16 16 15 13 13 14 15 16 16 17 17 18 20 22 23 25 26 27 28 28 28 27 26 25 23 21
17 16 15 15 14 14 15 15 15 15 17 18 19 19 19 18 18 18 19 20 20 20 19 18 19 20 22 24 25 27 28 28 29 29 28 26 24 22
17 15 14 14 14 14 15 15 16 17 18 20 21 22 22 22 23 23 23 23 22 20 19 19 19 20 22 24 26 28 29 30 30 30 30 29 27 25
Wind_Direction
267 268 270 270 270 268 264 262 260 258 253 244 238 237 239 244 248 246 245 238 231 231 235 241 244 246 246 246 244 244 243 242 242 242 242 242 242 243
266 267 267 267 265 261 257 254 252 248 242 235 235 236 240 243 244 247 248 243 236 233 235 239 243 245 245 245 245 245 245 245 244 244 244 244 243 244
266 264 263 261 257 252 248 243 240 236 232 234 236 241 247 247 247 248 248 247 245 241 240 241 242 243 245 246 246 247 248 249 249 248 247 246 245 245
264 260 256 253 248 242 238 233 231 226 227 237 244 250 253 251 250 250 248 247 248 246 244 245 246 248 249 249 249 249 251 252 252 251 249 247 246 246
260 255 249 243 239 235 232 230 232 231 235 239 244 249 248 247 247 248 248 248 248 249 250 252 254 255 255 255 255 254 253 254 254 254 253 252 251 251
251 245 237 233 233 227 226 228 231 231 232 236 241 241 240 240 244 248 250 251 253 254 256 258 259 260 261 261 260 260 259 258 257 256 256 256 255 254
244 235 226 219 219 219 218 222 226 230 230 229 230 231 233 237 243 247 253 257 260 262 264 265 267 268 268 268 267 266 265 263 261 260 259 258 257 256
249 237 228 223 218 213 210 210 213 214 215 220 226 230 235 240 246 254 261 267 270 272 273 273 273 273 273 273 272 271 270 268 267 265 264 262 261 260
252 241 234 230 223 215 210 207 207 209 214 220 226 232 239 249 260 269 274 276 275 275 275 276 277 278 278 276 275 273 272 271 269 267 266 265 263 262
247 242 237 230 223 218 214 209 207 207 210 217 226 237 251 262 269 272 275 276 278 281 282 283 283 282 280 278 277 275 274 272 270 269 267 265 263 262
241 236 233 230 229 221 214 209 206 205 206 217 232 244 254 262 268 272 276 281 284 287 288 289 288 287 286 285 284 282 281 279 276 273 270 267 264 261
236 230 223 221 219 212 206 203 200 202 206 215 226 237 247 258 267 276 284 289 293 295 297 299 299 298 298 297 296 295 293 292 289 286 281 276 270 264
221 213 208 205 201 196 193 194 194 195 199 207 215 225 237 256 278 292 300 307 312 316 318 318 316 314 312 309 305 302 299 298 297 295 292 286 279 270
205 198 193 189 188 191 194 194 193 196 201 205 207 210 232 268 291 304 317 329 336 338 337 334 331 327 323 318 311 305 299 296 296 297 294 291 286 279
199 194 191 190 193 197 195 194 197 204 207 205 203 209 230 255 282 309 340 354 354 350 347 344 342 339 335 328 321 311 303 296 292 294 296 294 289 283
194 192 192 193 195 196 196 200 207 210 210 209 209 216 231 239 249 286 349 358 357 356 355 354 352 349 345 341 334 326 315 305 298 294 296 298 295 285
193 194 194 196 198 200 204 209 212 213 213 213 214 223 234 240 251 269 327 352 357 357 357 357 355 354 352 350 345 339 332 322 312 304 300 300 300 292
194 197 197 198 202 206 210 213 215 216 217 219 221 228 237 248 259 273 304 335 345 349 351 351 352 353 353 353 352 350 346 340 332 323 313 307 305 300
196 199 200 203 207 211 215 217 219 222 226 228 230 234 240 252 264 278 297 317 329 335 340 343 346 349 352 354 355 354 353 350 346 340 331 322 315 308
199 202 204 207 211 216 221 223 224 228 234 237 238 240 244 254 266 279 292 304 316 324 330 336 343 349 353 355 355 355 354 353 351 348 344 338 329 318
198 202 206 211 216 220 222 223 226 232 239 244 245 247 251 260 271 283 292 298 306 315 322 330 340 349 353 354 355 354 354 353 352 351 348 344 339 332
197 201 207 214 220 223 224 227 230 237 245 249 251 252 257 264 272 281 290 297 301 307 312 320 331 342 350 352 352 353 352 350 349 348 347 344 340 334
199 205 214 224 231 233 235 236 239 244 249 252 254 256 260 267 274 280 287 293 297 300 303 309 320 331 341 347 348 348 348 348 347 345 342 340 337 332
Height
5728 5728 5728 5728 5728 5729 5730 5732 5734 5736 5738 5741 5743 5745 5748 5749 5750 5750 5751 5753 5757 5761 5765 5769 5772 5774 5776 5778 5780 5782 5785 5787 5789 5791 5793 5795 5797 5800
5716 5716 5717 5717 5718 5719 5720 5722 5725 5729 5731 5734 5736 5738 5741 5742 5743 5744 5745 5747 5749 5752 5756 5760 5763 5765 5767 5769 5772 5774 5776 5779 5781 5782 5784 5786 5788 5790
5705 5706 5706 5707 5708 5710 5712 5714 5718 5721 5724 5727 5729 5732 5734 5736 5737 5738 5739 5741 5742 5745 5747 5751 5754 5756 5759 5761 5763 5765 5767 5769 5771 5773 5774 5776 5778 5780
5696 5697 5698 5699 5700 5703 5705 5707 5711 5714 5718 5721 5723 5726 5728 5729 5730 5731 5732 5734 5736 5738 5740 5743 5746 5748 5750 5752 5754 5756 5758 5759 5761 5763 5764 5765 5767 5768
5689 5689 5690 5692 5694 5697 5699 5702 5705 5708 5712 5715 5717 5719 5721 5723 5724 5726 5727 5729 5730 5733 5735 5737 5739 5740 5742 5743 5745 5746 5748 5749 5750 5751 5752 5754 5755 5757
5683 5684 5685 5686 5689 5691 5693 5696 5699 5703 5706 5709 5711 5713 5715 5717 5719 5721 5722 5724 5726 5728 5729 5731 5732 5733 5734 5735 5736 5736 5737 5738 5739 5740 5741 5742 5743 5745
5679 5679 5680 5682 5684 5686 5688 5691 5695 5698 5701 5704 5706 5709 5711 5713 5715 5717 5718 5720 5721 5722 5724 5725 5725 5726 5726 5726 5727 5727 5727 5727 5727 5728 5729 5729 5730 5731
5675 5675 5676 5678 5680 5682 5684 5687 5691 5694 5697 5700 5702 5704 5706 5708 5710 5712 5714 5715 5716 5717 5717 5718 5718 5718 5718 5717 5717 5717 5716 5716 5716 5715 5716 5716 5716 5717
5672 5672 5673 5674 5676 5678 5681 5684 5687 5690 5694 5696 5699 5701 5703 5704 5706 5708 5709 5710 5710 5710 5710 5710 5710 5710 5709 5708 5707 5706 5704 5703 5702 5701 5701 5701 5701 5702
5667 5668 5669 5670 5672 5675 5677 5680 5684 5687 5690 5692 5695 5697 5699 5700 5702 5703 5703 5704 5704 5703 5703 5703 5702 5701 5699 5697 5695 5693 5691 5689 5687 5686 5685 5684 5684 5684
5663 5663 5665 5667 5669 5671 5674 5677 5680 5683 5686 5689 5691 5693 5695 5696 5697 5698 5698 5698 5698 5697 5696 5695 5693 5691 5689 5686 5683 5680 5677 5674 5671 5669 5667 5666 5665 5665
5658 5659 5661 5663 5666 5668 5671 5674 5677 5681 5684 5686 5688 5690 5691 5692 5693 5693 5693 5693 5692 5691 5690 5688 5686 5683 5680 5677 5673 5669 5665 5661 5657 5654 5651 5648 5646 5645
5654 5655 5657 5660 5662 5665 5669 5672 5675 5678 5681 5684 5685 5687 5688 5689 5689 5689 5688 5688 5687 5685 5684 5681 5679 5675 5672 5668 5664 5659 5655 5650 5646 5642 5637 5634 5630 5628
5650 5651 5654 5657 5660 5663 5667 5670 5673 5676 5679 5681 5683 5684 5685 5685 5685 5685 5685 5684 5682 5681 5678 5676 5673 5669 5665 5660 5655 5650 5645 5640 5636 5632 5627 5623 5618 5615
5646 5648 5651 5654 5658 5661 5665 5668 5671 5674 5676 5678 5680 5681 5682 5683 5683 5682 5682 5680 5679 5677 5674 5671 5668 5664 5659 5653 5647 5641 5635 5630 5626 5622 5618 5614 5609 5606
5642 5645 5648 5651 5655 5659 5662 5666 5668 5671 5673 5675 5677 5679 5680 5680 5680 5679 5678 5677 5675 5673 5670 5667 5663 5659 5654 5647 5640 5633 5627 5621 5617 5613 5610 5606 5602 5598
5638 5642 5645 5648 5652 5656 5660 5663 5665 5668 5670 5672 5674 5676 5677 5677 5676 5675 5674 5673 5672 5669 5667 5663 5659 5654 5649 5642 5635 5628 5621 5616 5611 5607 5603 5600 5596 5592
5635 5639 5642 5646 5650 5653 5657 5660 5662 5665 5667 5669 5671 5672 5673 5673 5672 5672 5670 5669 5667 5665 5663 5660 5656 5651 5646 5639 5633 5625 5618 5612 5607 5603 5598 5595 5591 5588
5632 5635 5639 5642 5646 5650 5653 5656 5659 5661 5664 5666 5667 5668 5668 5669 5668 5668 5667 5665 5664 5661 5659 5656 5652 5647 5642 5636 5629 5623 5616 5610 5605 5600 5595 5591 5587 5584
5629 5632 5636 5639 5643 5646 5649 5652 5655 5657 5660 5661 5662 5663 5664 5664 5664 5663 5662 5661 5660 5658 5655 5652 5648 5643 5638 5633 5627 5621 5615 5609 5603 5598 5593 5589 5585 5581
5625 5629 5633 5636 5639 5642 5645 5648 5651 5653 5655 5657 5657 5658 5658 5659 5659 5658 5657 5656 5655 5653 5650 5647 5644 5639 5634 5630 5625 5619 5613 5607 5602 5597 5592 5587 5583 5579
5622 5626 5630 5633 5636 5639 5642 5644 5646 5649 5650 5651 5652 5652 5653 5653 5653 5652 5652 5650 5649 5648 5645 5643 5640 5636 5631 5627 5621 5616 5611 5606 5601 5595 5590 5586 5582 5577
5620 5624 5627 5630 5632 5635 5638 5640 5642 5643 5645 5646 5646 5647 5646 5646 5646 5646 5645 5644 5643 5642 5640 5638 5635 5631 5627 5623 5619 5614 5609 5604 5598 5593 5588 5583 5579 5575